Weather History for KSDL - September, 2013

Change the Weather History Date:

Monday, September 23, 2013

  Actual Average Record
Temperature  
Mean Temperature 77 °F -  
Max Temperature 90 °F 93 °F 105 °F (2001)
Min Temperature 64 °F 72 °F 63 °F (2004)
Cooling Degree Days 12    
Growing Degree Days 27 (Base 50)    
Moisture  
Dew Point 32 °F    
Average Humidity 21    
Maximum Humidity 36    
Minimum Humidity 10    
Precipitation  
Precipitation 0.00 in - - ()
Sea Level Pressure  
Sea Level Pressure 29.80 in    
Wind  
Wind Speed 1 mph (WNW)    
Max Wind Speed 8 mph    
Max Gust Speed -    
Visibility 10 miles    
Events      
Averages and records for this station are not official NWS values.
T = Trace of Precipitation, MM = Missing Value Source: NWS Daily Summary

Daily Weather History Graph

Daily Weather History Graph

Search for Another Location

Airport or City:

Trip Planner

Search our weather history database for the weather conditions in past years. The results will help you decide how hot, cold, wet, or windy it might be!

Date:

Astronomy

Sep. 23, 2013 Rise Set
Actual Time 6:16 AM MST 6:22 PM MST
Civil Twilight 5:51 AM MST 6:47 PM MST
Nautical Twilight 5:22 AM MST 7:16 PM MST
Astronomical Twilight 4:53 AM MST 7:45 PM MST
Moon 9:11 PM MST (9/23) 10:25 AM MST (9/23)
Length of Visible Light 12h 55m
Length of Day
12h 05m
Waning Gibbous, 80% of the Moon is Illuminated
Sep 23
Waning Gibbous
Sep 26
Last Quarter
Oct 4
New
Oct 11
First Quarter
Oct 18
Full

Hourly Weather History & Observations

Time (MST) Temp. Dew Point Humidity Pressure Visibility Wind Dir Wind Speed Gust Speed Precip Events Conditions
12:53 AM 70.0 °F 34.0 °F 27% 29.72 in 10.0 mi Calm Calm - N/A   Clear
1:53 AM 66.9 °F 36.0 °F 32% 29.73 in 10.0 mi Calm Calm - N/A   Clear
2:53 AM 64.9 °F 37.0 °F 36% 29.73 in 10.0 mi Calm Calm - N/A   Clear
3:53 AM 64.9 °F 37.0 °F 36% 29.74 in 10.0 mi Calm Calm - N/A   Clear
4:53 AM 66.0 °F 35.1 °F 32% 29.75 in 10.0 mi Calm Calm - N/A   Clear
5:53 AM 64.9 °F 37.0 °F 36% 29.78 in 10.0 mi Calm Calm - N/A   Clear
6:53 AM 64.9 °F 36.0 °F 34% 29.81 in 10.0 mi Calm Calm - N/A   Clear
7:53 AM 72.0 °F 34.0 °F 25% 29.82 in 10.0 mi Calm Calm - N/A   Clear
8:53 AM 77.0 °F 36.0 °F 23% 29.85 in 10.0 mi Calm Calm - N/A   Clear
9:53 AM 80.1 °F 32.0 °F 17% 29.86 in 10.0 mi Calm Calm - N/A   Clear
10:53 AM 84.0 °F 27.0 °F 13% 29.84 in 10.0 mi Calm Calm - N/A   Clear
11:53 AM 86.0 °F 27.0 °F 12% 29.82 in 10.0 mi Calm Calm - N/A   Clear
12:53 PM 86.0 °F 27.0 °F 12% 29.81 in 10.0 mi West 3.5 mph - N/A   Clear
1:53 PM 89.1 °F 27.0 °F 11% 29.80 in 10.0 mi Variable 5.8 mph - N/A   Clear
2:53 PM 89.1 °F 27.0 °F 11% 29.80 in 10.0 mi NW 3.5 mph - N/A   Clear
3:53 PM 90.0 °F 27.0 °F 10% 29.78 in 10.0 mi Calm Calm - N/A   Clear
4:53 PM 90.0 °F 28.0 °F 11% 29.78 in 10.0 mi WSW 8.1 mph - N/A   Clear
5:53 PM 89.1 °F 28.0 °F 11% 29.79 in 10.0 mi SSW 5.8 mph - N/A   Clear
6:53 PM 87.1 °F 28.9 °F 12% 29.80 in 10.0 mi WSW 3.5 mph - N/A   Clear
7:53 PM 84.0 °F 30.9 °F 15% 29.81 in 10.0 mi Calm Calm - N/A   Clear
8:53 PM 82.0 °F 34.0 °F 18% 29.83 in 10.0 mi NE 3.5 mph - N/A   Clear
9:53 PM 77.0 °F 37.9 °F 24% 29.84 in 10.0 mi Calm Calm - N/A   Clear
10:53 PM 77.0 °F 34.0 °F 21% 29.84 in 10.0 mi North 4.6 mph - N/A   Clear
11:53 PM 78.1 °F 32.0 °F 19% 29.84 in 10.0 mi North 3.5 mph - N/A   Clear